QTR7P OTHH-EGLL

Flight info

Callsign QTR7P
Flight time N/A
Altitude 29000
Route DATRI L564 MIGMA/N0523F280 M550 MEVDO Y511 ITRUX/N0506F340 Y511 PMA Z712 WEJ L677 CVO L617 NOZ L551 ANTAR DCT NEVRA DCT TALAS/N0483F360 DCT ENFAR DCT AKIKA DCT SOLGU DCT NAVSU DCT NEMEK DCT MODSA DCT BABEG DCT LIRSU DCT DENUT L608 LOGAN
Aircraft A35K/H-SDE2E3GHIJ1J3J4J5LM1ORWXY/LB1D1

Departure

Time 2026-05-07 00:02
Airport Hamad International Airport (OTHH)

Arrival

Time N/A
Airport London Heathrow Airport (EGLL)
Time Latitude Longitude Altitude Speed Heading
2026-05-06 23:22 25.26528 51.61076 32 ft 0 kts 68°
2026-05-06 23:37 25.26526 51.61069 26 ft 2 kts 67°
2026-05-06 23:37 25.26523 51.61062 32 ft 0 kts 62°
2026-05-06 23:38 25.26520 51.61056 32 ft 2 kts 63°
2026-05-06 23:39 25.26513 51.61042 32 ft 2 kts 64°
2026-05-06 23:39 25.26507 51.61028 32 ft 2 kts 69°
2026-05-06 23:39 25.26503 51.61014 30 ft 2 kts 69°
2026-05-06 23:39 25.26495 51.61001 32 ft 2 kts 36°
2026-05-06 23:40 25.26482 51.60993 32 ft 2 kts 18°
2026-05-06 23:40 25.26469 51.60989 30 ft 2 kts
2026-05-06 23:40 25.26458 51.60990 32 ft 1 kts 346°
2026-05-06 23:40 25.26455 51.60990 32 ft 0 kts 341°
2026-05-06 23:44 25.26461 51.60988 32 ft 3 kts 341°
2026-05-06 23:44 25.26499 51.60973 29 ft 8 kts 339°
2026-05-06 23:44 25.26558 51.60942 30 ft 10 kts 323°
2026-05-06 23:45 25.26594 51.60881 31 ft 10 kts 292°
2026-05-06 23:45 25.26620 51.60811 28 ft 10 kts 292°
2026-05-06 23:45 25.26638 51.60764 29 ft 10 kts 292°
2026-05-06 23:45 25.26667 51.60692 29 ft 10 kts 295°
2026-05-06 23:46 25.26692 51.60625 28 ft 9 kts 283°
2026-05-06 23:46 25.26677 51.60563 31 ft 9 kts 247°
2026-05-06 23:46 25.26654 51.60505 29 ft 8 kts 250°
2026-05-06 23:46 25.26669 51.60456 30 ft 6 kts 321°
2026-05-06 23:47 25.26709 51.60445 31 ft 6 kts 343°
2026-05-06 23:47 25.26749 51.60428 30 ft 6 kts 339°
2026-05-06 23:47 25.26792 51.60408 30 ft 7 kts 336°
2026-05-06 23:47 25.26837 51.60386 29 ft 7 kts 337°
2026-05-06 23:48 25.26885 51.60364 31 ft 8 kts 337°
2026-05-06 23:48 25.26936 51.60341 29 ft 8 kts 339°
2026-05-06 23:48 25.26990 51.60333 30 ft 8 kts
2026-05-06 23:48 25.27022 51.60372 31 ft 7 kts 70°
2026-05-06 23:49 25.27039 51.60424 30 ft 8 kts 70°
2026-05-06 23:49 25.27058 51.60481 30 ft 8 kts 70°
2026-05-06 23:49 25.27082 51.60541 28 ft 9 kts 65°
2026-05-06 23:49 25.27108 51.60604 28 ft 9 kts 60°
2026-05-06 23:50 25.27156 51.60647 29 ft 9 kts 16°
2026-05-06 23:50 25.27243 51.60709 31 ft 8 kts 70°
2026-05-06 23:50 25.27263 51.60771 28 ft 9 kts 69°
2026-05-06 23:51 25.27286 51.60837 31 ft 9 kts 69°
2026-05-06 23:51 25.27311 51.60906 30 ft 10 kts 68°
2026-05-06 23:51 25.27337 51.60979 28 ft 10 kts 67°
2026-05-06 23:51 25.27366 51.61056 29 ft 11 kts 67°
2026-05-06 23:52 25.27396 51.61136 30 ft 11 kts 69°
2026-05-06 23:52 25.27425 51.61220 29 ft 12 kts 69°
2026-05-06 23:52 25.27457 51.61307 31 ft 12 kts 68°
2026-05-06 23:52 25.27482 51.61376 30 ft 9 kts 67°
2026-05-06 23:53 25.27507 51.61442 29 ft 9 kts 69°
2026-05-06 23:53 25.27497 51.61507 30 ft 9 kts 126°
2026-05-06 23:53 25.27443 51.61532 26 ft 9 kts 161°
2026-05-06 23:53 25.27384 51.61560 29 ft 9 kts 156°
2026-05-06 23:54 25.27323 51.61590 31 ft 10 kts 155°
2026-05-06 23:54 25.27256 51.61620 30 ft 11 kts 161°
2026-05-06 23:54 25.27183 51.61648 28 ft 12 kts 159°
2026-05-06 23:54 25.27106 51.61678 31 ft 12 kts 161°
2026-05-06 23:55 25.27027 51.61715 31 ft 13 kts 156°
2026-05-06 23:55 25.26943 51.61753 29 ft 13 kts 158°
2026-05-06 23:55 25.26854 51.61792 28 ft 14 kts 158°
2026-05-06 23:55 25.26760 51.61833 30 ft 15 kts 158°
2026-05-06 23:56 25.26663 51.61876 29 ft 15 kts 159°
2026-05-06 23:56 25.26562 51.61920 30 ft 16 kts 159°
2026-05-06 23:56 25.26458 51.61966 31 ft 16 kts 158°
2026-05-06 23:56 25.26354 51.62013 26 ft 16 kts 159°
2026-05-06 23:57 25.26248 51.62060 26 ft 17 kts 158°
2026-05-06 23:57 25.26139 51.62106 26 ft 17 kts 158°
2026-05-06 23:57 25.26028 51.62156 27 ft 17 kts 157°
2026-05-06 23:57 25.25915 51.62208 31 ft 18 kts 159°
2026-05-06 23:58 25.25811 51.62252 32 ft 16 kts 159°
2026-05-06 23:58 25.25715 51.62293 28 ft 14 kts 158°
2026-05-06 23:58 25.25625 51.62334 31 ft 14 kts 157°
2026-05-06 23:58 25.25539 51.62372 31 ft 12 kts 158°
2026-05-06 23:59 25.25510 51.62385 30 ft 2 kts 155°
2026-05-06 23:59 25.25498 51.62392 31 ft 2 kts 154°
2026-05-06 23:59 25.25486 51.62401 28 ft 2 kts 142°
2026-05-06 23:59 25.25476 51.62415 31 ft 2 kts 124°
2026-05-07 00:00 25.25472 51.62447 26 ft 5 kts 85°
2026-05-07 00:00 25.25485 51.62489 31 ft 9 kts 69°
2026-05-07 00:00 25.25516 51.62573 30 ft 12 kts 67°
2026-05-07 00:00 25.25547 51.62642 27 ft 7 kts 50°
2026-05-07 00:01 25.25585 51.62663 27 ft 5 kts 356°
2026-05-07 00:01 25.25601 51.62656 27 ft 0 kts 338°
2026-05-07 00:01 25.25641 51.62638 27 ft 27 kts 337°
2026-05-07 00:01 25.25996 51.62480 26 ft 82 kts 338°
2026-05-07 00:02 25.26678 51.62180 27 ft 129 kts 338°
2026-05-07 00:02 25.27634 51.61749 62 ft 163 kts 338°
2026-05-07 00:02 25.28667 51.61285 588 ft 155 kts 339°
2026-05-07 00:02 25.29671 51.60845 1028 ft 154 kts 340°
2026-05-07 00:03 25.30677 51.60407 1362 ft 160 kts 341°
2026-05-07 00:03 25.31775 51.59938 1424 ft 176 kts 345°
2026-05-07 00:03 25.33027 51.59835 1552 ft 188 kts
2026-05-07 00:03 25.34366 51.60038 1704 ft 202 kts
2026-05-07 00:04 25.35798 51.60349 1850 ft 218 kts 11°
2026-05-07 00:04 25.37333 51.60720 2036 ft 233 kts 10°
2026-05-07 00:04 25.38960 51.61127 2328 ft 244 kts 11°
2026-05-07 00:04 25.40650 51.61558 2606 ft 255 kts 11°
2026-05-07 00:05 25.42394 51.62006 3014 ft 259 kts 12°
2026-05-07 00:05 25.44163 51.62463 3474 ft 261 kts 12°
2026-05-07 00:05 25.45925 51.62918 3848 ft 265 kts 12°
2026-05-07 00:05 25.47734 51.63371 3978 ft 267 kts 12°
2026-05-07 00:06 25.49562 51.63671 3997 ft 267 kts
2026-05-07 00:06 25.51409 51.63383 4169 ft 272 kts 341°
2026-05-07 00:06 25.53039 51.62311 4570 ft 276 kts 316°
2026-05-07 00:06 25.54085 51.60524 4931 ft 281 kts 289°
2026-05-07 00:07 25.54236 51.58378 5340 ft 284 kts 263°
2026-05-07 00:07 25.53849 51.56226 5791 ft 286 kts 257°
2026-05-07 00:07 25.53381 51.54073 6196 ft 289 kts 257°
2026-05-07 00:07 25.52911 51.51896 6599 ft 292 kts 258°
2026-05-07 00:08 25.52448 51.49707 6978 ft 291 kts 258°
2026-05-07 00:08 25.51992 51.47515 7203 ft 292 kts 258°
2026-05-07 00:08 25.51539 51.45320 7072 ft 292 kts 258°
2026-05-07 00:08 25.51090 51.43138 7011 ft 291 kts 258°
2026-05-07 00:09 25.50640 51.40947 6994 ft 292 kts 258°
2026-05-07 00:09 25.50189 51.38755 6992 ft 293 kts 258°
2026-05-07 00:09 25.49743 51.36581 6991 ft 293 kts 258°
2026-05-07 00:09 25.49290 51.34380 6997 ft 292 kts 258°
2026-05-07 00:10 25.48838 51.32184 7015 ft 292 kts 258°
2026-05-07 00:10 25.48389 51.30000 6994 ft 291 kts 257°
2026-05-07 00:10 25.47759 51.27866 6998 ft 292 kts 242°
2026-05-07 00:10 25.46460 51.26169 7017 ft 290 kts 214°
2026-05-07 00:11 25.44609 51.25353 7022 ft 290 kts 186°
2026-05-07 00:11 25.42583 51.25247 7004 ft 293 kts 179°
2026-05-07 00:11 25.40539 51.25283 7005 ft 294 kts 178°
2026-05-07 00:11 25.38487 51.25330 7005 ft 294 kts 178°
2026-05-07 00:12 25.36450 51.25370 7019 ft 293 kts 178°
2026-05-07 00:12 25.34410 51.25404 7005 ft 293 kts 179°
2026-05-07 00:12 25.32378 51.25434 7021 ft 292 kts 178°
2026-05-07 00:12 25.30368 51.25461 7021 ft 292 kts 178°
2026-05-07 00:13 25.28332 51.25492 7020 ft 293 kts 177°
2026-05-07 00:13 25.26329 51.25828 7024 ft 291 kts 162°
2026-05-07 00:13 25.24420 51.26562 7020 ft 291 kts 158°
2026-05-07 00:13 25.22527 51.27369 7006 ft 292 kts 158°
2026-05-07 00:14 25.20637 51.28181 7022 ft 291 kts 157°
2026-05-07 00:14 25.18743 51.28989 7021 ft 291 kts 158°
2026-05-07 00:14 25.16857 51.29790 7008 ft 291 kts 158°
2026-05-07 00:14 25.14961 51.30592 7023 ft 291 kts 158°
2026-05-07 00:15 25.13069 51.31392 7152 ft 293 kts 158°
2026-05-07 00:15 25.11153 51.32201 7538 ft 296 kts 158°
2026-05-07 00:15 25.09231 51.33010 8032 ft 296 kts 157°
2026-05-07 00:15 25.07303 51.33822 8485 ft 299 kts 157°
2026-05-07 00:16 25.05346 51.34647 8898 ft 302 kts 157°
2026-05-07 00:16 25.03379 51.35474 9388 ft 302 kts 157°
2026-05-07 00:16 25.01417 51.36308 9899 ft 303 kts 157°
2026-05-07 00:16 24.99432 51.37153 10207 ft 310 kts 158°
2026-05-07 00:17 24.97381 51.38017 10404 ft 321 kts 158°
2026-05-07 00:17 24.95257 51.38911 10585 ft 333 kts 158°
2026-05-07 00:17 24.93071 51.39896 10771 ft 344 kts 151°
2026-05-07 00:17 24.91012 51.41297 10952 ft 354 kts 144°
2026-05-07 00:18 24.88994 51.42864 11142 ft 364 kts 143°
2026-05-07 00:18 24.86906 51.44507 11308 ft 374 kts 142°
2026-05-07 00:18 24.84763 51.46191 11478 ft 383 kts 142°
2026-05-07 00:18 24.82569 51.47914 11639 ft 392 kts 143°
2026-05-07 00:19 24.80327 51.49667 11905 ft 398 kts 143°
2026-05-07 00:19 24.78062 51.51436 12279 ft 400 kts 143°
2026-05-07 00:19 24.75787 51.53211 12673 ft 402 kts 143°
2026-05-07 00:19 24.73448 51.54909 13052 ft 405 kts 150°
2026-05-07 00:20 24.70797 51.55991 13390 ft 410 kts 168°
2026-05-07 00:20 24.67944 51.56122 13771 ft 413 kts 183°
2026-05-07 00:20 24.65085 51.55711 14070 ft 418 kts 188°
2026-05-07 00:20 24.62228 51.55074 14386 ft 420 kts 191°
2026-05-07 00:21 24.59379 51.54338 14760 ft 421 kts 192°
2026-05-07 00:21 24.56525 51.53579 15112 ft 423 kts 192°
2026-05-07 00:21 24.53664 51.52833 15489 ft 424 kts 192°
2026-05-07 00:21 24.50780 51.52106 15802 ft 427 kts 191°
2026-05-07 00:22 24.47876 51.51397 16218 ft 429 kts 191°
2026-05-07 00:22 24.44942 51.50696 16640 ft 431 kts 191°
2026-05-07 00:22 24.42012 51.50005 17116 ft 432 kts 191°
2026-05-07 00:22 24.39063 51.49314 17466 ft 434 kts 191°
2026-05-07 00:23 24.36090 51.48618 17719 ft 438 kts 191°
2026-05-07 00:23 24.33145 51.47927 18038 ft 439 kts 192°
2026-05-07 00:23 24.30151 51.47225 18335 ft 441 kts 192°
2026-05-07 00:23 24.27152 51.46520 18641 ft 442 kts 192°
2026-05-07 00:24 24.24142 51.45822 18942 ft 442 kts 191°
2026-05-07 00:24 24.21092 51.45389 19230 ft 443 kts 184°
2026-05-07 00:24 24.18004 51.45226 19505 ft 445 kts 182°
2026-05-07 00:24 24.14914 51.45168 19788 ft 446 kts 181°
2026-05-07 00:25 24.11796 51.45167 19993 ft 449 kts 180°
2026-05-07 00:25 24.08665 51.45193 20254 ft 450 kts 180°
2026-05-07 00:25 24.05526 51.45226 20540 ft 451 kts 181°
2026-05-07 00:25 24.02387 51.45254 20806 ft 453 kts 180°
2026-05-07 00:26 23.99230 51.45278 21069 ft 454 kts 181°
2026-05-07 00:26 23.96069 51.45295 21322 ft 455 kts 181°
2026-05-07 00:26 23.92895 51.45308 21564 ft 457 kts 181°
2026-05-07 00:26 23.89711 51.45319 21806 ft 459 kts 181°
2026-05-07 00:27 23.86510 51.45329 22010 ft 461 kts 181°
2026-05-07 00:27 23.83294 51.45339 22245 ft 463 kts 181°
2026-05-07 00:27 23.80065 51.45349 22501 ft 464 kts 181°
2026-05-07 00:27 23.76836 51.45359 22740 ft 465 kts 181°
2026-05-07 00:28 23.73596 51.45370 22984 ft 466 kts 181°
2026-05-07 00:28 23.70352 51.45380 23222 ft 468 kts 181°
2026-05-07 00:28 23.67096 51.45391 23450 ft 469 kts 181°
2026-05-07 00:28 23.63829 51.45402 23629 ft 470 kts 181°
2026-05-07 00:29 23.60545 51.45413 23807 ft 472 kts 181°
2026-05-07 00:29 23.57262 51.45405 23994 ft 473 kts 183°